{"data":{"norad_id":36585,"intl_designator":"2010-022A","name":"GPS BIIF-1  (PRN 25)","alt_names":[],"object_type":"PAYLOAD","status":"ACTIVE","operator":null,"country":"US","launch_date":"2010-05-28","launch_site_code":"AFETR","launch_vehicle":null,"mission":null,"orbit_class":"UNKNOWN","rcs_meters":5.9608,"size_class":null,"mass_kg":null,"dimensions":null,"purposes":["nav"],"wikipedia_slug":null,"has_3d_model":false,"image_url":null,"decayed_at":null,"tle_current":{"epoch":"2026-09-19T22:22:12.754848Z","epoch_age_seconds":63564,"freshness":"FRESH","line1":"1 36585U 10022A   26262.93209207 -.00000006  00000+0  00000+0 0  9997","line2":"2 36585  54.2581 204.7474 0115957  55.8469 123.8181  2.00610250119491","mean_motion":2.0061025,"eccentricity":0.0115957,"inclination_deg":54.2581,"raan_deg":204.7474,"arg_perigee_deg":55.8469,"mean_anomaly_deg":123.8181,"bstar":0,"rev_number":11949,"period_min":717.80978289993,"perigee_km":19870.155359365,"apogee_km":20486.031522007,"semimajor_km":26556.230440686,"source":"CELESTRAK","updated_at":"2026-09-20T09:00:46.087220Z"}}}